Weather History for Bainbridge, GA

Change the Weather History Date:

Wednesday, February 20, 2013

  Actual Average (KMAI) Record (KMAI)
Temperature  
Mean Temperature 46 °F 56 °F  
Max Temperature 59 °F 67 °F 82 °F (2014)
Min Temperature 33 °F 44 °F 30 °F (2009)
Degree Days  
Heating Degree Days 19    
Month to date heating degree days  
Since 1 July heating degree days  
Cooling Degree Days 0    
Month to date cooling degree days  
Year to date cooling degree days  
Moisture  
Dew Point 31 °F    
Average Humidity 58    
Maximum Humidity 93    
Minimum Humidity 27    
Precipitation  
Precipitation 0.00 in 0.17 in 0.96 in (2002)
Month to date precipitation 3.41  
Year to date precipitation 8.45  
Sea Level Pressure  
Sea Level Pressure 30.18 in    
Wind  
Wind Speed 5 mph (North)    
Max Wind Speed 14 mph    
Max Gust Speed 20 mph    
Visibility 9 miles    
Events      
T = Trace of Precipitation, MM = Missing Value Source: NWS Daily Summary

Daily Weather History Graph

Daily Weather History Graph

Search for Another Location

Airport:

Trip Planner

Search our weather history database for the weather conditions in past years. The results will help you decide how hot, cold, wet, or windy it might be!

Date:

Astronomy

Feb. 20, 2013 Rise Set
Actual Time 7:14 AM EST 6:30 PM EST
Civil Twilight 6:49 AM EST 6:54 PM EST
Nautical Twilight 6:21 AM EST 7:23 PM EST
Astronomical Twilight 5:53 AM EST 7:51 PM EST
Moon 2:02 PM EST (2/20) 3:22 AM EST (2/20)
Length of Visible Light 12h 04m
Length of Day
11h 15m
Waxing Gibbous, 76% of the Moon is Illuminated
Feb 20
Waxing Gibbous
Feb 25
Full
Mar 4
Last Quarter
Mar 11
New
Mar 19
First Quarter

Hourly Weather History & Observations

Time (EST) Temp. Windchill Dew Point Humidity Pressure Visibility Wind Dir Wind Speed Gust Speed Precip Events Conditions
12:15 AM 51.8 °F - 33.8 °F 50% 30.16 in 10.0 mi NNW 6.9 mph - N/A   Clear
12:35 AM 51.8 °F - 33.8 °F 50% 30.16 in 10.0 mi NNW 8.1 mph - N/A   Clear
12:55 AM 50.0 °F - 33.8 °F 54% 30.17 in 10.0 mi NNW 8.1 mph - N/A   Clear
1:15 AM 50.0 °F - 33.8 °F 54% 30.18 in 10.0 mi NNW 6.9 mph - N/A   Clear
1:55 AM 46.4 °F 43.5 °F 32.0 °F 57% 30.18 in 10.0 mi NNW 5.8 mph - N/A   Clear
2:15 AM 44.6 °F 41.4 °F 32.0 °F 61% 30.17 in 10.0 mi North 5.8 mph - N/A   Clear
2:35 AM 44.6 °F 41.4 °F 32.0 °F 61% 30.17 in 10.0 mi North 5.8 mph - N/A   Clear
3:15 AM 44.6 °F 40.7 °F 32.0 °F 61% 30.16 in 10.0 mi North 6.9 mph - N/A   Clear
3:35 AM 42.8 °F 39.3 °F 32.0 °F 66% 30.16 in 10.0 mi North 5.8 mph - N/A   Clear
3:55 AM 42.8 °F 40.1 °F 32.0 °F 66% 30.16 in 10.0 mi North 4.6 mph - N/A   Clear
4:15 AM 41.0 °F 39.0 °F 32.0 °F 70% 30.17 in 10.0 mi NNW 3.5 mph - N/A   Clear
4:35 AM 41.0 °F 38.0 °F 32.0 °F 70% 30.17 in 10.0 mi North 4.6 mph - N/A   Clear
4:55 AM 41.0 °F - 32.0 °F 70% 30.18 in 10.0 mi Calm Calm - N/A   Clear
5:15 AM 35.6 °F 32.8 °F 32.0 °F 87% 30.20 in 10.0 mi NW 3.5 mph - N/A   Clear
5:35 AM 39.2 °F - 32.0 °F 75% 30.20 in 10.0 mi Calm Calm - N/A   Clear
5:55 AM 33.8 °F - 32.0 °F 93% 30.21 in 10.0 mi Calm Calm - N/A   Clear
6:15 AM 33.8 °F - 32.0 °F 93% 30.21 in 10.0 mi Calm Calm - N/A   Clear
6:35 AM 33.8 °F - 32.0 °F 93% 30.22 in 10.0 mi Calm Calm - N/A   Clear
6:55 AM 33.8 °F - 32.0 °F 93% 30.23 in 10.0 mi Calm Calm - N/A   Clear
7:15 AM 33.8 °F - 32.0 °F 93% 30.23 in 10.0 mi Calm Calm - N/A   Clear
7:35 AM 33.8 °F - 32.0 °F 93% 30.23 in 10.0 mi Calm Calm - N/A   Clear
8:15 AM 37.4 °F - 33.8 °F 87% 30.23 in 10.0 mi Calm Calm - N/A   Clear
8:35 AM 41.0 °F 36.4 °F 32.0 °F 70% 30.24 in 10.0 mi NNE 6.9 mph - N/A   Clear
8:55 AM 42.8 °F 37.5 °F 30.2 °F 61% 30.24 in 10.0 mi NNE 9.2 mph - N/A   Clear
9:15 AM 44.6 °F 39.7 °F 26.6 °F 49% 30.24 in 10.0 mi NNE 9.2 mph 17.3 mph N/A   Clear
9:35 AM 44.6 °F 38.1 °F 26.6 °F 49% 30.23 in 10.0 mi NE 13.8 mph 19.6 mph N/A   Clear
9:55 AM 46.4 °F 40.7 °F 24.8 °F 43% 30.23 in 10.0 mi ENE 12.7 mph 18.4 mph N/A   Clear
10:15 AM 48.2 °F - 24.8 °F 40% 30.23 in 10.0 mi ENE 9.2 mph - N/A   Clear
10:35 AM 50.0 °F - 26.6 °F 40% 30.23 in 10.0 mi ENE 10.4 mph - N/A   Clear
10:55 AM 51.8 °F - 26.6 °F 38% 30.22 in 10.0 mi East 10.4 mph 16.1 mph N/A   Clear
11:15 AM 51.8 °F - 26.6 °F 38% 30.23 in 10.0 mi NE 8.1 mph - N/A   Clear
11:35 AM 51.8 °F - 26.6 °F 38% 30.23 in 10.0 mi NE 6.9 mph - N/A   Clear
11:55 AM 51.8 °F - 24.8 °F 35% 30.21 in 10.0 mi ENE 5.8 mph - N/A   Clear
12:15 PM 51.8 °F - 23.0 °F 33% 30.22 in 10.0 mi NE 4.6 mph - N/A   Clear
12:35 PM 53.6 °F - 24.8 °F 33% 30.21 in 10.0 mi North 4.6 mph - N/A   Clear
12:55 PM 55.4 °F - 26.6 °F 33% 30.20 in 10.0 mi NNW 3.5 mph - N/A   Clear
1:15 PM 55.4 °F - 26.6 °F 33% 30.18 in 10.0 mi Calm Calm - N/A   Clear
1:35 PM 57.2 °F - 26.6 °F 31% 30.18 in 10.0 mi West 3.5 mph - N/A   Clear
1:55 PM 57.2 °F - 23.0 °F 27% 30.18 in 10.0 mi NW 5.8 mph - N/A   Clear
2:15 PM 57.2 °F - 26.6 °F 31% 30.17 in 10.0 mi Calm Calm - N/A   Clear
2:35 PM 59.0 °F - 28.4 °F 31% 30.17 in 10.0 mi Calm Calm - N/A   Clear
2:55 PM 59.0 °F - 26.6 °F 29% 30.16 in 10.0 mi NW 6.9 mph - N/A   Clear
3:15 PM 59.0 °F - 26.6 °F 29% 30.13 in 10.0 mi NNE 8.1 mph - N/A   Clear
3:55 PM 59.0 °F - 26.6 °F 29% 30.12 in 10.0 mi North 5.8 mph - N/A   Clear
4:15 PM 57.2 °F - 28.4 °F 33% 30.12 in 10.0 mi North 4.6 mph - N/A   Clear
4:35 PM 59.0 °F - 28.4 °F 31% 30.12 in 10.0 mi North 6.9 mph - N/A   Clear
4:55 PM 57.2 °F - 26.6 °F 31% 30.13 in 10.0 mi North 3.5 mph - N/A   Clear
5:15 PM 57.2 °F - 28.4 °F 33% 30.14 in 10.0 mi NNE 4.6 mph - N/A   Clear
5:35 PM 57.2 °F - 30.2 °F 36% 30.15 in 10.0 mi North 4.6 mph - N/A   Clear
5:55 PM 57.2 °F - 30.2 °F 36% 30.11 in 10.0 mi ESE 3.5 mph - N/A   Clear
6:15 PM 57.2 °F - 30.2 °F 36% 30.12 in 10.0 mi North 3.5 mph - N/A   Clear
6:35 PM 59.0 °F - 32.0 °F 36% 30.14 in 4.0 mi Calm Calm - N/A   Haze
7:15 PM 51.8 °F - 37.4 °F 58% 30.15 in 7.0 mi Calm Calm - N/A   Clear
7:35 PM 48.2 °F - 37.4 °F 66% 30.14 in 5.0 mi Calm Calm - N/A   Haze
7:55 PM 44.6 °F - 39.2 °F 81% 30.15 in 3.0 mi Calm Calm - N/A   Haze
8:15 PM 44.6 °F - 37.4 °F 76% 30.15 in 1.2 mi Calm Calm - N/A   Haze
8:35 PM 44.6 °F - 37.4 °F 76% 30.14 in 10.0 mi Calm Calm - N/A   Scattered Clouds
8:55 PM 44.6 °F - 37.4 °F 76% 30.13 in 10.0 mi Calm Calm - N/A   Clear
9:15 PM 44.6 °F - 39.2 °F 81% 30.14 in 10.0 mi Calm Calm - N/A   Clear
9:35 PM 46.4 °F - 37.4 °F 71% 30.14 in 10.0 mi Calm Calm - N/A   Clear
9:55 PM 44.6 °F - 39.2 °F 81% 30.14 in 3.0 mi Calm Calm - N/A   Haze
10:15 PM 44.6 °F - 39.2 °F 81% 30.14 in 3.0 mi Calm Calm - N/A   Haze
10:35 PM 44.6 °F - 39.2 °F 81% 30.15 in 3.0 mi Calm Calm - N/A   Haze
10:55 PM 44.6 °F - 37.4 °F 76% 30.15 in 4.0 mi Calm Calm - N/A   Haze
11:15 PM 44.6 °F - 39.2 °F 81% 30.14 in 5.0 mi Calm Calm - N/A   Haze
11:35 PM 42.8 °F - 37.4 °F 81% 30.14 in 4.0 mi Calm Calm - N/A   Clear
11:55 PM 41.0 °F - 37.4 °F 87% 30.14 in 5.0 mi Calm Calm - N/A   Clear